Terug naar catalogus

CZ-3B R/B

ActiefHEO
NORAD 63362·ROCKET BODY·🇨🇳 China

Gelanceerd Mar 26, 2025 vanaf Xichang Satellite Launch Center

Loading…

Volgende Passages (komende 24 uur)

TLE

VersSource: Space-Track

Epoch: Sep 12, 2026, 23:31 UTC

1 63362U 25062B   26255.97998818  .00069204  22588-6  72766-3 0  9997
2 63362  26.8388 157.3157 6666866 256.6246  26.3206  3.16294637 15175

Volg CZ-3B R/B in realtime met AllMySat

Download on the App Store